Year,Month,Day,Hour,Minute,Value (Times are PST for temperature in C)
2014,04,11,00,00,8.70
2014,04,11,00,01,8.70
2014,04,11,00,02,8.70
2014,04,11,00,03,8.70
2014,04,11,00,04,8.70
2014,04,11,00,05,8.70
2014,04,11,00,06,8.70
2014,04,11,00,07,8.70
2014,04,11,00,08,8.70
2014,04,11,00,09,8.70
2014,04,11,00,10,8.70
2014,04,11,00,11,8.70
2014,04,11,00,12,8.70
2014,04,11,00,13,8.70
2014,04,11,00,14,8.70
2014,04,11,00,15,8.70
2014,04,11,00,16,8.70
2014,04,11,00,17,8.70
2014,04,11,00,18,8.70
2014,04,11,00,19,8.60
2014,04,11,00,20,8.60
2014,04,11,00,21,8.60
2014,04,11,00,22,8.60
2014,04,11,00,23,8.60
2014,04,11,00,24,8.60
2014,04,11,00,25,8.50
2014,04,11,00,26,8.50
2014,04,11,00,27,8.50
2014,04,11,00,28,8.50
2014,04,11,00,29,8.50
2014,04,11,00,30,8.50
2014,04,11,00,31,8.50
2014,04,11,00,32,8.40
2014,04,11,00,33,8.40
2014,04,11,00,34,8.40
2014,04,11,00,35,8.40
2014,04,11,00,36,8.40
2014,04,11,00,37,8.40
2014,04,11,00,38,8.40
2014,04,11,00,39,8.40
2014,04,11,00,40,8.40
2014,04,11,00,41,8.30
2014,04,11,00,42,8.30
2014,04,11,00,43,8.30
2014,04,11,00,44,8.30
2014,04,11,00,45,8.30
2014,04,11,00,46,8.30
2014,04,11,00,47,8.30
2014,04,11,00,48,8.30
2014,04,11,00,49,8.30
2014,04,11,00,50,8.30
2014,04,11,00,51,8.30
2014,04,11,00,52,8.30
2014,04,11,00,53,8.20
2014,04,11,00,54,8.20
2014,04,11,00,55,8.20
2014,04,11,00,56,8.20
2014,04,11,00,57,8.20
2014,04,11,00,58,8.20
2014,04,11,00,59,8.30
2014,04,11,01,00,8.30
2014,04,11,01,01,8.30
2014,04,11,01,02,8.30
2014,04,11,01,03,8.30
2014,04,11,01,04,8.30
2014,04,11,01,05,8.30
2014,04,11,01,06,8.30
2014,04,11,01,07,8.30
2014,04,11,01,08,8.30
2014,04,11,01,09,8.30
2014,04,11,01,10,8.30
2014,04,11,01,11,8.30
2014,04,11,01,12,8.30
2014,04,11,01,13,8.30
2014,04,11,01,14,8.30
2014,04,11,01,15,8.30
2014,04,11,01,16,8.30
2014,04,11,01,17,8.30
2014,04,11,01,18,8.30
2014,04,11,01,19,8.30
2014,04,11,01,20,8.30
2014,04,11,01,21,8.30
2014,04,11,01,22,8.20
2014,04,11,01,23,8.20
2014,04,11,01,24,8.20
2014,04,11,01,25,8.20
2014,04,11,01,26,8.20
2014,04,11,01,27,8.20
2014,04,11,01,28,8.20
2014,04,11,01,29,8.20
2014,04,11,01,30,8.20
2014,04,11,01,31,8.10
2014,04,11,01,32,8.10
2014,04,11,01,33,8.10
2014,04,11,01,34,8.10
2014,04,11,01,35,8.00
2014,04,11,01,36,8.00
2014,04,11,01,37,8.00
2014,04,11,01,38,7.90
2014,04,11,01,39,7.90
2014,04,11,01,40,7.80
2014,04,11,01,41,7.80
2014,04,11,01,42,7.70
2014,04,11,01,43,7.70
2014,04,11,01,44,7.60
2014,04,11,01,45,7.60
2014,04,11,01,46,7.60
2014,04,11,01,47,7.60
2014,04,11,01,48,7.50
2014,04,11,01,49,7.50
2014,04,11,01,50,7.50
2014,04,11,01,51,7.50
2014,04,11,01,52,7.50
2014,04,11,01,53,7.50
2014,04,11,01,54,7.50
2014,04,11,01,55,7.50
2014,04,11,01,56,7.50
2014,04,11,01,57,7.40
2014,04,11,01,58,7.30
2014,04,11,01,59,7.30
2014,04,11,02,00,7.30
2014,04,11,02,01,7.30
2014,04,11,02,02,7.30
2014,04,11,02,03,7.30
2014,04,11,02,04,7.30
2014,04,11,02,05,7.30
2014,04,11,02,06,7.30
2014,04,11,02,07,7.20
2014,04,11,02,08,7.20
2014,04,11,02,09,7.10
2014,04,11,02,10,7.10
2014,04,11,02,11,7.00
2014,04,11,02,12,6.90
2014,04,11,02,13,6.80
2014,04,11,02,14,6.80
2014,04,11,02,15,6.70
2014,04,11,02,16,6.70
2014,04,11,02,17,6.60
2014,04,11,02,18,6.60
2014,04,11,02,19,6.60
2014,04,11,02,20,6.50
2014,04,11,02,21,6.50
2014,04,11,02,22,6.40
2014,04,11,02,23,6.40
2014,04,11,02,24,6.30
2014,04,11,02,25,6.30
2014,04,11,02,26,6.30
2014,04,11,02,27,6.20
2014,04,11,02,28,6.20
2014,04,11,02,29,6.20
2014,04,11,02,30,6.20
2014,04,11,02,31,6.20
2014,04,11,02,32,6.20
2014,04,11,02,33,6.20
2014,04,11,02,34,6.20
2014,04,11,02,35,6.20
2014,04,11,02,36,6.10
2014,04,11,02,37,6.10
2014,04,11,02,38,6.10
2014,04,11,02,39,6.10
2014,04,11,02,40,6.10
2014,04,11,02,41,6.10
2014,04,11,02,42,6.10
2014,04,11,02,43,6.00
2014,04,11,02,44,6.00
2014,04,11,02,45,6.00
2014,04,11,02,46,6.00
2014,04,11,02,47,5.90
2014,04,11,02,48,5.90
2014,04,11,02,49,5.90
2014,04,11,02,50,5.80
2014,04,11,02,51,5.80
2014,04,11,02,52,5.80
2014,04,11,02,53,5.80
2014,04,11,02,54,5.80
2014,04,11,02,55,5.90
2014,04,11,02,56,5.90
2014,04,11,02,57,5.90
2014,04,11,02,58,5.90
2014,04,11,02,59,5.90
2014,04,11,03,00,5.80
2014,04,11,03,01,5.80
2014,04,11,03,02,5.80
2014,04,11,03,03,5.80
2014,04,11,03,04,5.80
2014,04,11,03,05,5.80
2014,04,11,03,06,5.80
2014,04,11,03,07,5.80
2014,04,11,03,08,5.90
2014,04,11,03,09,5.90
2014,04,11,03,10,5.90
2014,04,11,03,11,5.90
2014,04,11,03,12,5.90
2014,04,11,03,13,5.90
2014,04,11,03,14,5.90
2014,04,11,03,15,5.80
2014,04,11,03,16,5.80
2014,04,11,03,17,5.70
2014,04,11,03,18,5.70
2014,04,11,03,19,5.60
2014,04,11,03,20,5.60
2014,04,11,03,21,5.60
2014,04,11,03,22,5.50
2014,04,11,03,23,5.50
2014,04,11,03,24,5.50
2014,04,11,03,25,5.40
2014,04,11,03,26,5.40
2014,04,11,03,27,5.30
2014,04,11,03,28,5.30
2014,04,11,03,29,5.20
2014,04,11,03,30,5.20
2014,04,11,03,31,5.20
2014,04,11,03,32,5.20
2014,04,11,03,33,5.20
2014,04,11,03,34,5.20
2014,04,11,03,35,5.20
2014,04,11,03,36,5.20
2014,04,11,03,37,5.20
2014,04,11,03,38,5.20
2014,04,11,03,39,5.20
2014,04,11,03,40,5.20
2014,04,11,03,41,5.20
2014,04,11,03,42,5.20
2014,04,11,03,43,5.10
2014,04,11,03,44,5.10
2014,04,11,03,45,5.10
2014,04,11,03,46,5.10
2014,04,11,03,47,5.00
2014,04,11,03,48,5.00
2014,04,11,03,49,5.00
2014,04,11,03,50,5.00
2014,04,11,03,51,5.00
2014,04,11,03,52,4.90
2014,04,11,03,53,4.90
2014,04,11,03,54,4.90
2014,04,11,03,55,4.90
2014,04,11,03,56,4.90
2014,04,11,03,57,4.90
2014,04,11,03,58,4.90
2014,04,11,03,59,4.90
2014,04,11,04,00,5.00
2014,04,11,04,01,5.00
2014,04,11,04,02,5.00
2014,04,11,04,03,5.00
2014,04,11,04,04,5.00
2014,04,11,04,05,5.00
2014,04,11,04,06,5.00
2014,04,11,04,07,5.00
2014,04,11,04,08,5.00
2014,04,11,04,09,5.00
2014,04,11,04,10,5.00
2014,04,11,04,11,5.00
2014,04,11,04,12,5.00
2014,04,11,04,13,5.00
2014,04,11,04,14,5.00
2014,04,11,04,15,5.00
2014,04,11,04,16,5.00
2014,04,11,04,17,5.00
2014,04,11,04,18,5.00
2014,04,11,04,19,5.00
2014,04,11,04,20,4.90
2014,04,11,04,21,4.90
2014,04,11,04,22,4.90
2014,04,11,04,23,4.90
2014,04,11,04,24,4.90
2014,04,11,04,25,4.90
2014,04,11,04,26,4.90
2014,04,11,04,27,4.90
2014,04,11,04,28,5.00
2014,04,11,04,29,5.00
2014,04,11,04,30,5.00
2014,04,11,04,31,5.10
2014,04,11,04,32,5.10
2014,04,11,04,33,5.20
2014,04,11,04,34,5.20
2014,04,11,04,35,5.20
2014,04,11,04,36,5.20
2014,04,11,04,37,5.20
2014,04,11,04,38,5.30
2014,04,11,04,39,5.30
2014,04,11,04,40,5.30
2014,04,11,04,41,5.30
2014,04,11,04,42,5.30
2014,04,11,04,43,5.30
2014,04,11,04,44,5.30
2014,04,11,04,45,5.30
2014,04,11,04,46,5.30
2014,04,11,04,47,5.30
2014,04,11,04,48,5.30
2014,04,11,04,49,5.30
2014,04,11,04,50,5.30
2014,04,11,04,51,5.30
2014,04,11,04,52,5.30
2014,04,11,04,53,5.30
2014,04,11,04,54,5.30
2014,04,11,04,55,5.30
2014,04,11,04,56,5.40
2014,04,11,04,57,5.40
2014,04,11,04,58,5.40
2014,04,11,04,59,5.40
2014,04,11,05,00,5.50
2014,04,11,05,01,5.50
2014,04,11,05,02,5.60
2014,04,11,05,03,5.60
2014,04,11,05,04,5.60
2014,04,11,05,05,5.70
2014,04,11,05,06,5.70
2014,04,11,05,07,5.80
2014,04,11,05,08,5.80
2014,04,11,05,09,5.80
2014,04,11,05,10,5.80
2014,04,11,05,11,5.90
2014,04,11,05,12,5.90
2014,04,11,05,13,5.90
2014,04,11,05,14,5.90
2014,04,11,05,15,6.00
2014,04,11,05,16,6.00
2014,04,11,05,17,6.10
2014,04,11,05,18,6.10
2014,04,11,05,19,6.10
2014,04,11,05,20,6.10
2014,04,11,05,21,6.10
2014,04,11,05,22,6.10
2014,04,11,05,23,6.10
2014,04,11,05,24,6.10
2014,04,11,05,25,6.10
2014,04,11,05,26,6.10
2014,04,11,05,27,6.10
2014,04,11,05,28,6.10
2014,04,11,05,29,6.10
2014,04,11,05,30,6.20
2014,04,11,05,31,6.20
2014,04,11,05,32,6.20
2014,04,11,05,33,6.20
2014,04,11,05,34,6.20
2014,04,11,05,35,6.20
2014,04,11,05,36,6.20
2014,04,11,05,37,6.20
2014,04,11,05,38,6.20
2014,04,11,05,39,6.20
2014,04,11,05,40,6.20
2014,04,11,05,41,6.20
2014,04,11,05,42,6.30
2014,04,11,05,43,6.30
2014,04,11,05,44,6.30
2014,04,11,05,45,6.30
2014,04,11,05,46,6.40
2014,04,11,05,47,6.40
2014,04,11,05,48,6.40
2014,04,11,05,49,6.40
2014,04,11,05,50,6.40
2014,04,11,05,51,6.40
2014,04,11,05,52,6.40
2014,04,11,05,53,6.50
2014,04,11,05,54,6.50
2014,04,11,05,55,6.50
2014,04,11,05,56,6.50
2014,04,11,05,57,6.50
2014,04,11,05,58,6.50
2014,04,11,05,59,6.60
2014,04,11,06,00,6.60
2014,04,11,06,01,6.60
2014,04,11,06,02,6.60
2014,04,11,06,03,6.60
2014,04,11,06,04,6.60
2014,04,11,06,05,6.60
2014,04,11,06,06,6.60
2014,04,11,06,07,6.70
2014,04,11,06,08,6.70
2014,04,11,06,09,6.70
2014,04,11,06,10,6.70
2014,04,11,06,11,6.70
2014,04,11,06,12,6.70
2014,04,11,06,13,6.70
2014,04,11,06,14,6.70
2014,04,11,06,15,6.70
2014,04,11,06,16,6.80
2014,04,11,06,17,6.80
2014,04,11,06,18,6.80
2014,04,11,06,19,6.80
2014,04,11,06,20,6.80
2014,04,11,06,21,6.80
2014,04,11,06,22,6.90
2014,04,11,06,23,6.90
2014,04,11,06,24,6.90
2014,04,11,06,25,6.80
2014,04,11,06,26,6.90
2014,04,11,06,27,6.90
2014,04,11,06,28,6.80
2014,04,11,06,29,6.80
2014,04,11,06,30,6.90
2014,04,11,06,31,6.90
2014,04,11,06,32,6.90
2014,04,11,06,33,7.00
2014,04,11,06,34,7.00
2014,04,11,06,35,7.10
2014,04,11,06,36,7.10
2014,04,11,06,37,7.10
2014,04,11,06,38,7.10
2014,04,11,06,39,7.10
2014,04,11,06,40,7.10
2014,04,11,06,41,7.10
2014,04,11,06,42,7.10
2014,04,11,06,43,7.10
2014,04,11,06,44,7.10
2014,04,11,06,45,7.20
2014,04,11,06,46,7.10
2014,04,11,06,47,7.10
2014,04,11,06,48,7.10
2014,04,11,06,49,7.10
2014,04,11,06,50,7.10
2014,04,11,06,51,7.10
2014,04,11,06,52,7.10
2014,04,11,06,53,7.10
2014,04,11,06,54,7.10
2014,04,11,06,55,7.10
2014,04,11,06,56,7.10
2014,04,11,06,57,7.10
2014,04,11,06,58,7.10
2014,04,11,06,59,7.10
2014,04,11,07,00,7.10
2014,04,11,07,01,7.10
2014,04,11,07,02,7.10
2014,04,11,07,03,7.10
2014,04,11,07,04,7.10
2014,04,11,07,05,7.10
2014,04,11,07,06,7.10
2014,04,11,07,07,7.10
2014,04,11,07,08,7.10
2014,04,11,07,09,7.20
2014,04,11,07,10,7.20
2014,04,11,07,11,7.20
2014,04,11,07,12,7.20
2014,04,11,07,13,7.30
2014,04,11,07,14,7.40
2014,04,11,07,15,7.40
2014,04,11,07,16,7.40
2014,04,11,07,17,7.50
2014,04,11,07,18,7.50
2014,04,11,07,19,7.60
2014,04,11,07,20,7.60
2014,04,11,07,21,7.60
2014,04,11,07,22,7.60
2014,04,11,07,23,7.60
2014,04,11,07,24,7.60
2014,04,11,07,25,7.60
2014,04,11,07,26,7.60
2014,04,11,07,27,7.60
2014,04,11,07,28,7.60
2014,04,11,07,29,7.50
2014,04,11,07,30,7.50
2014,04,11,07,31,7.50
2014,04,11,07,32,7.50
2014,04,11,07,33,7.50
2014,04,11,07,34,7.60
2014,04,11,07,35,7.60
2014,04,11,07,36,7.60
2014,04,11,07,37,7.70
2014,04,11,07,38,7.70
2014,04,11,07,39,7.80
2014,04,11,07,40,7.80
2014,04,11,07,41,7.80
2014,04,11,07,42,7.80
2014,04,11,07,43,7.90
2014,04,11,07,44,7.90
2014,04,11,07,45,8.00
2014,04,11,07,46,8.00
2014,04,11,07,47,8.10
2014,04,11,07,48,8.10
2014,04,11,07,49,8.20
2014,04,11,07,50,8.30
2014,04,11,07,51,8.30
2014,04,11,07,52,8.40
2014,04,11,07,53,8.40
2014,04,11,07,54,8.50
2014,04,11,07,55,8.60
2014,04,11,07,56,8.70
2014,04,11,07,57,8.80
2014,04,11,07,58,8.80
2014,04,11,07,59,8.90
2014,04,11,08,00,9.00
2014,04,11,08,01,9.10
2014,04,11,08,02,9.20
2014,04,11,08,03,9.30
2014,04,11,08,04,9.40
2014,04,11,08,05,9.50
2014,04,11,08,06,9.60
2014,04,11,08,07,9.70
2014,04,11,08,08,9.80
2014,04,11,08,09,9.90
2014,04,11,08,10,9.90
2014,04,11,08,11,10.00
2014,04,11,08,12,10.10
2014,04,11,08,13,10.20
2014,04,11,08,14,10.30
2014,04,11,08,15,10.30
2014,04,11,08,16,10.40
2014,04,11,08,17,10.40
2014,04,11,08,18,10.50
2014,04,11,08,19,10.60
2014,04,11,08,20,10.60
2014,04,11,08,21,10.70
2014,04,11,08,22,10.70
2014,04,11,08,23,10.60
2014,04,11,08,24,10.50
2014,04,11,08,25,10.40
2014,04,11,08,26,10.30
2014,04,11,08,27,10.30
2014,04,11,08,28,10.40
2014,04,11,08,29,10.40
2014,04,11,08,30,10.50
2014,04,11,08,31,10.50
2014,04,11,08,32,10.60
2014,04,11,08,33,10.60
2014,04,11,08,34,10.60
2014,04,11,08,35,10.60
2014,04,11,08,36,10.60
2014,04,11,08,37,10.60
2014,04,11,08,38,10.60
2014,04,11,08,39,10.60
2014,04,11,08,40,10.60
2014,04,11,08,41,10.60
2014,04,11,08,42,10.60
2014,04,11,08,43,10.60
2014,04,11,08,44,10.60
2014,04,11,08,45,10.60
2014,04,11,08,46,10.70
2014,04,11,08,47,10.80
2014,04,11,08,48,10.90
2014,04,11,08,49,10.90
2014,04,11,08,50,11.00
2014,04,11,08,51,11.10
2014,04,11,08,52,11.20
2014,04,11,08,53,11.40
2014,04,11,08,54,11.40
2014,04,11,08,55,11.50
2014,04,11,08,56,11.60
2014,04,11,08,57,11.70
2014,04,11,08,58,11.80
2014,04,11,08,59,11.80
2014,04,11,09,00,11.80
2014,04,11,09,01,11.90
2014,04,11,09,02,11.90
2014,04,11,09,03,11.90
2014,04,11,09,04,11.90
2014,04,11,09,05,11.90
2014,04,11,09,06,12.00
2014,04,11,09,07,12.00
2014,04,11,09,08,12.00
2014,04,11,09,09,12.10
2014,04,11,09,10,12.10
2014,04,11,09,11,12.20
2014,04,11,09,12,12.20
2014,04,11,09,13,12.30
2014,04,11,09,14,12.30
2014,04,11,09,15,12.30
2014,04,11,09,16,12.40
2014,04,11,09,17,12.40
2014,04,11,09,18,12.40
2014,04,11,09,19,12.40
2014,04,11,09,20,12.40
2014,04,11,09,21,12.40
2014,04,11,09,22,12.30
2014,04,11,09,23,12.30
2014,04,11,09,24,12.30
2014,04,11,09,25,12.30
2014,04,11,09,26,12.30
2014,04,11,09,27,12.30
2014,04,11,09,28,12.40
2014,04,11,09,29,12.40
2014,04,11,09,30,12.40
2014,04,11,09,31,12.40
2014,04,11,09,32,12.40
2014,04,11,09,33,12.40
2014,04,11,09,34,12.40
2014,04,11,09,35,12.30
2014,04,11,09,36,12.30
2014,04,11,09,37,12.30
2014,04,11,09,38,12.30
2014,04,11,09,39,12.30
2014,04,11,09,40,12.30
2014,04,11,09,41,12.40
2014,04,11,09,42,12.50
2014,04,11,09,43,12.60
2014,04,11,09,44,12.70
2014,04,11,09,45,12.80
2014,04,11,09,46,13.00
2014,04,11,09,47,13.10
2014,04,11,09,48,13.20
2014,04,11,09,49,13.20
2014,04,11,09,50,13.30
2014,04,11,09,51,13.40
2014,04,11,09,52,13.50
2014,04,11,09,53,13.50
2014,04,11,09,54,13.60
2014,04,11,09,55,13.60
2014,04,11,09,56,13.60
2014,04,11,09,57,13.60
2014,04,11,09,58,13.70
2014,04,11,09,59,13.70
2014,04,11,10,00,13.70
2014,04,11,10,01,13.80
2014,04,11,10,02,13.80
2014,04,11,10,03,13.80
2014,04,11,10,04,13.80
2014,04,11,10,05,13.80
2014,04,11,10,06,13.80
2014,04,11,10,07,13.80
2014,04,11,10,08,13.90
2014,04,11,10,09,14.00
2014,04,11,10,10,14.00
2014,04,11,10,11,14.10
2014,04,11,10,12,14.10
2014,04,11,10,13,14.10
2014,04,11,10,14,14.00
2014,04,11,10,15,13.90
2014,04,11,10,16,13.90
2014,04,11,10,17,13.80
2014,04,11,10,18,13.70
2014,04,11,10,19,13.70
2014,04,11,10,20,13.70
2014,04,11,10,21,13.70
2014,04,11,10,22,13.60
2014,04,11,10,23,13.60
2014,04,11,10,24,13.60
2014,04,11,10,25,13.70
2014,04,11,10,26,13.70
2014,04,11,10,27,13.70
2014,04,11,10,28,13.70
2014,04,11,10,29,13.70
2014,04,11,10,30,13.80
2014,04,11,10,31,13.80
2014,04,11,10,32,13.90
2014,04,11,10,33,14.00
2014,04,11,10,34,14.00
2014,04,11,10,35,14.10
2014,04,11,10,36,14.10
2014,04,11,10,37,14.10
2014,04,11,10,38,14.10
2014,04,11,10,39,14.10
2014,04,11,10,40,14.20
2014,04,11,10,41,14.20
2014,04,11,10,42,14.20
2014,04,11,10,43,14.20
2014,04,11,10,44,14.20
2014,04,11,10,45,14.20
2014,04,11,10,46,14.20
2014,04,11,10,47,14.20
2014,04,11,10,48,14.20
2014,04,11,10,49,14.20
2014,04,11,10,50,14.20
2014,04,11,10,51,14.20
2014,04,11,10,52,14.30
2014,04,11,10,53,14.30
2014,04,11,10,54,14.40
2014,04,11,10,55,14.30
2014,04,11,10,56,14.30
2014,04,11,10,57,14.30
2014,04,11,10,58,14.30
2014,04,11,10,59,14.30
2014,04,11,11,00,14.30
2014,04,11,11,01,14.30
2014,04,11,11,02,14.20
2014,04,11,11,03,14.10
2014,04,11,11,04,14.10
2014,04,11,11,05,14.10
2014,04,11,11,06,14.10
2014,04,11,11,07,14.20
2014,04,11,11,08,14.20
2014,04,11,11,09,14.30
2014,04,11,11,10,14.30
2014,04,11,11,11,14.40
2014,04,11,11,12,14.50
2014,04,11,11,13,14.60
2014,04,11,11,14,14.70
2014,04,11,11,15,14.60
2014,04,11,11,16,14.60
2014,04,11,11,17,14.50
2014,04,11,11,18,14.50
2014,04,11,11,19,14.60
2014,04,11,11,20,14.60
2014,04,11,11,21,14.70
2014,04,11,11,22,14.70
2014,04,11,11,23,14.70
2014,04,11,11,24,14.60
2014,04,11,11,25,14.50
2014,04,11,11,26,14.40
2014,04,11,11,27,14.40
2014,04,11,11,28,14.40
2014,04,11,11,29,14.40
2014,04,11,11,30,14.40
2014,04,11,11,31,14.50
2014,04,11,11,32,14.50
2014,04,11,11,33,14.60
2014,04,11,11,34,14.60
2014,04,11,11,35,14.70
2014,04,11,11,36,14.70
2014,04,11,11,37,14.70
2014,04,11,11,38,14.70
2014,04,11,11,39,14.80
2014,04,11,11,40,14.90
2014,04,11,11,41,14.90
2014,04,11,11,42,15.00
2014,04,11,11,43,15.10
2014,04,11,11,44,15.10
2014,04,11,11,45,15.10
2014,04,11,11,46,15.20
2014,04,11,11,47,15.20
2014,04,11,11,48,15.20
2014,04,11,11,49,15.20
2014,04,11,11,50,15.10
2014,04,11,11,51,15.10
2014,04,11,11,52,15.10
2014,04,11,11,53,15.20
2014,04,11,11,54,15.30
2014,04,11,11,55,15.30
2014,04,11,11,56,15.30
2014,04,11,11,57,15.30
2014,04,11,11,58,15.30
2014,04,11,11,59,15.40
2014,04,11,12,00,15.40
2014,04,11,12,01,15.50
2014,04,11,12,02,15.50
2014,04,11,12,03,15.50
2014,04,11,12,04,15.50
2014,04,11,12,05,15.50
2014,04,11,12,06,15.50
2014,04,11,12,07,15.60
2014,04,11,12,08,15.60
2014,04,11,12,09,15.50
2014,04,11,12,10,15.40
2014,04,11,12,11,15.50
2014,04,11,12,12,15.50
2014,04,11,12,13,15.60
2014,04,11,12,14,15.70
2014,04,11,12,15,15.80
2014,04,11,12,16,15.80
2014,04,11,12,17,15.80
2014,04,11,12,18,15.80
2014,04,11,12,19,15.80
2014,04,11,12,20,15.90
2014,04,11,12,21,15.90
2014,04,11,12,22,15.80
2014,04,11,12,23,15.90
2014,04,11,12,24,15.80
2014,04,11,12,25,15.80
2014,04,11,12,26,15.80
2014,04,11,12,27,15.80
2014,04,11,12,28,15.70
2014,04,11,12,29,15.70
2014,04,11,12,30,15.70
2014,04,11,12,31,15.70
2014,04,11,12,32,15.80
2014,04,11,12,33,15.80
2014,04,11,12,34,15.80
2014,04,11,12,35,15.90
2014,04,11,12,36,16.00
2014,04,11,12,37,16.20
2014,04,11,12,38,16.20
2014,04,11,12,39,16.10
2014,04,11,12,40,16.00
2014,04,11,12,41,15.90
2014,04,11,12,42,15.90
2014,04,11,12,43,15.90
2014,04,11,12,44,16.00
2014,04,11,12,45,16.10
2014,04,11,12,46,16.20
2014,04,11,12,47,16.20
2014,04,11,12,48,16.30
2014,04,11,12,49,16.40
2014,04,11,12,50,16.50
2014,04,11,12,51,16.50
2014,04,11,12,52,16.50
2014,04,11,12,53,16.50
2014,04,11,12,54,16.40
2014,04,11,12,55,16.50
2014,04,11,12,56,16.50
2014,04,11,12,57,16.40
2014,04,11,12,58,16.30
2014,04,11,12,59,16.30
2014,04,11,13,00,16.30
2014,04,11,13,01,16.20
2014,04,11,13,02,16.20
2014,04,11,13,03,16.20
2014,04,11,13,04,16.30
2014,04,11,13,05,16.30
2014,04,11,13,06,16.20
2014,04,11,13,07,16.20
2014,04,11,13,08,16.20
2014,04,11,13,09,16.20
2014,04,11,13,10,16.20
2014,04,11,13,11,16.30
2014,04,11,13,12,16.30
2014,04,11,13,13,16.30
2014,04,11,13,14,16.30
2014,04,11,13,15,16.30
2014,04,11,13,16,16.30
2014,04,11,13,17,16.30
2014,04,11,13,18,16.30
2014,04,11,13,19,16.20
2014,04,11,13,20,16.20
2014,04,11,13,21,16.20
2014,04,11,13,22,16.30
2014,04,11,13,23,16.30
2014,04,11,13,24,16.40
2014,04,11,13,25,16.60
2014,04,11,13,26,16.70
2014,04,11,13,27,16.70
2014,04,11,13,28,16.70
2014,04,11,13,29,16.70
2014,04,11,13,30,16.70
2014,04,11,13,31,16.80
2014,04,11,13,32,16.80
2014,04,11,13,33,16.90
2014,04,11,13,34,16.90
2014,04,11,13,35,16.80
2014,04,11,13,36,16.70
2014,04,11,13,37,16.70
2014,04,11,13,38,16.70
2014,04,11,13,39,16.60
2014,04,11,13,40,16.60
2014,04,11,13,41,16.60
2014,04,11,13,42,16.50
2014,04,11,13,43,16.40
2014,04,11,13,44,16.40
2014,04,11,13,45,16.30
2014,04,11,13,46,16.30
2014,04,11,13,47,16.30
2014,04,11,13,48,16.30
2014,04,11,13,49,16.40
2014,04,11,13,50,16.50
2014,04,11,13,51,16.50
2014,04,11,13,52,16.60
2014,04,11,13,53,16.50
2014,04,11,13,54,16.40
2014,04,11,13,55,16.30
2014,04,11,13,56,16.30
2014,04,11,13,57,16.30
2014,04,11,13,58,16.30
2014,04,11,13,59,16.30
2014,04,11,14,00,16.40
2014,04,11,14,01,16.50
2014,04,11,14,02,16.60
2014,04,11,14,03,16.60
2014,04,11,14,04,16.60
2014,04,11,14,05,16.60
2014,04,11,14,06,16.60
2014,04,11,14,07,16.70
2014,04,11,14,08,16.80
2014,04,11,14,09,16.80
2014,04,11,14,10,16.70
2014,04,11,14,11,16.70
2014,04,11,14,12,16.70
2014,04,11,14,13,16.70
2014,04,11,14,14,16.80
2014,04,11,14,15,16.80
2014,04,11,14,16,16.80
2014,04,11,14,17,16.80
2014,04,11,14,18,16.90
2014,04,11,14,19,16.90
2014,04,11,14,20,16.90
2014,04,11,14,21,16.90
2014,04,11,14,22,16.90
2014,04,11,14,23,16.90
2014,04,11,14,24,16.90
2014,04,11,14,25,16.90
2014,04,11,14,26,16.80
2014,04,11,14,27,16.80
2014,04,11,14,28,16.70
2014,04,11,14,29,16.70
2014,04,11,14,30,16.70
2014,04,11,14,31,16.70
2014,04,11,14,32,16.80
2014,04,11,14,33,16.70
2014,04,11,14,34,16.70
2014,04,11,14,35,16.70
2014,04,11,14,36,16.70
2014,04,11,14,37,16.70
2014,04,11,14,38,16.60
2014,04,11,14,39,16.60
2014,04,11,14,40,16.60
2014,04,11,14,41,16.60
2014,04,11,14,42,16.50
2014,04,11,14,43,16.50
2014,04,11,14,44,16.50
2014,04,11,14,45,16.50
2014,04,11,14,46,16.50
2014,04,11,14,47,16.40
2014,04,11,14,48,16.40
2014,04,11,14,49,16.40
2014,04,11,14,50,16.50
2014,04,11,14,51,16.50
2014,04,11,14,52,16.60
2014,04,11,14,53,16.70
2014,04,11,14,54,16.80
2014,04,11,14,55,16.90
2014,04,11,14,56,16.90
2014,04,11,14,57,17.00
2014,04,11,14,58,17.10
2014,04,11,14,59,17.20
2014,04,11,15,00,17.20
2014,04,11,15,01,17.30
2014,04,11,15,02,17.30
2014,04,11,15,03,17.40
2014,04,11,15,04,17.50
2014,04,11,15,05,17.60
2014,04,11,15,06,17.60
2014,04,11,15,07,17.50
2014,04,11,15,08,17.50
2014,04,11,15,09,17.40
2014,04,11,15,10,17.40
2014,04,11,15,11,17.30
2014,04,11,15,12,17.20
2014,04,11,15,13,17.20
2014,04,11,15,14,17.20
2014,04,11,15,15,17.20
2014,04,11,15,16,17.10
2014,04,11,15,17,17.00
2014,04,11,15,18,16.90
2014,04,11,15,19,16.90
2014,04,11,15,20,16.80
2014,04,11,15,21,16.80
2014,04,11,15,22,16.80
2014,04,11,15,23,16.70
2014,04,11,15,24,16.70
2014,04,11,15,25,16.70
2014,04,11,15,26,16.70
2014,04,11,15,27,16.70
2014,04,11,15,28,16.60
2014,04,11,15,29,16.60
2014,04,11,15,30,16.60
2014,04,11,15,31,16.60
2014,04,11,15,32,16.70
2014,04,11,15,33,16.80
2014,04,11,15,34,16.90
2014,04,11,15,35,17.00
2014,04,11,15,36,17.10
2014,04,11,15,37,17.10
2014,04,11,15,38,17.10
2014,04,11,15,39,17.10
2014,04,11,15,40,17.20
2014,04,11,15,41,17.30
2014,04,11,15,42,17.30
2014,04,11,15,43,17.40
2014,04,11,15,44,17.40
2014,04,11,15,45,17.40
2014,04,11,15,46,17.40
2014,04,11,15,47,17.40
2014,04,11,15,48,17.30
2014,04,11,15,49,17.30
2014,04,11,15,50,17.30
2014,04,11,15,51,17.40
2014,04,11,15,52,17.40
2014,04,11,15,53,17.30
2014,04,11,15,54,17.20
2014,04,11,15,55,17.20
2014,04,11,15,56,17.10
2014,04,11,15,57,17.10
2014,04,11,15,58,17.20
2014,04,11,15,59,17.20
2014,04,11,16,00,17.20
2014,04,11,16,01,17.20
2014,04,11,16,02,17.20
2014,04,11,16,03,17.30
2014,04,11,16,04,17.30
2014,04,11,16,05,17.30
2014,04,11,16,06,17.30
2014,04,11,16,07,17.20
2014,04,11,16,08,17.20
2014,04,11,16,09,17.10
2014,04,11,16,10,17.10
2014,04,11,16,11,17.00
2014,04,11,16,12,17.10
2014,04,11,16,13,17.00
2014,04,11,16,14,16.90
2014,04,11,16,15,16.80
2014,04,11,16,16,16.80
2014,04,11,16,17,16.70
2014,04,11,16,18,16.70
2014,04,11,16,19,16.70
2014,04,11,16,20,16.70
2014,04,11,16,21,16.80
2014,04,11,16,22,16.80
2014,04,11,16,23,16.90
2014,04,11,16,24,17.00
2014,04,11,16,25,17.00
2014,04,11,16,26,17.00
2014,04,11,16,27,16.90
2014,04,11,16,28,16.90
2014,04,11,16,29,16.90
2014,04,11,16,30,17.00
2014,04,11,16,31,17.10
2014,04,11,16,32,17.20
2014,04,11,16,33,17.20
2014,04,11,16,34,17.10
2014,04,11,16,35,17.10
2014,04,11,16,36,16.90
2014,04,11,16,37,16.80
2014,04,11,16,38,16.70
2014,04,11,16,39,16.50
2014,04,11,16,40,16.40
2014,04,11,16,41,16.40
2014,04,11,16,42,16.40
2014,04,11,16,43,16.30
2014,04,11,16,44,16.30
2014,04,11,16,45,16.30
2014,04,11,16,46,16.40
2014,04,11,16,47,16.40
2014,04,11,16,48,16.40
2014,04,11,16,49,16.50
2014,04,11,16,50,16.50
2014,04,11,16,51,16.60
2014,04,11,16,52,16.70
2014,04,11,16,53,16.60
2014,04,11,16,54,16.60
2014,04,11,16,55,16.60
2014,04,11,16,56,16.60
2014,04,11,16,57,16.60
2014,04,11,16,58,16.60
2014,04,11,16,59,16.70
2014,04,11,17,00,16.70
2014,04,11,17,01,16.70
2014,04,11,17,02,16.70
2014,04,11,17,03,16.80
2014,04,11,17,04,16.80
2014,04,11,17,05,16.80
2014,04,11,17,06,16.70
2014,04,11,17,07,16.70
2014,04,11,17,08,16.70
2014,04,11,17,09,16.70
2014,04,11,17,10,16.60
2014,04,11,17,11,16.60
2014,04,11,17,12,16.70
2014,04,11,17,13,16.80
2014,04,11,17,14,16.80
2014,04,11,17,15,16.80
2014,04,11,17,16,16.70
2014,04,11,17,17,16.40
2014,04,11,17,18,16.30
2014,04,11,17,19,16.20
2014,04,11,17,20,16.10
2014,04,11,17,21,15.90
2014,04,11,17,22,15.80
2014,04,11,17,23,15.80
2014,04,11,17,24,15.70
2014,04,11,17,25,15.60
2014,04,11,17,26,15.50
2014,04,11,17,27,15.40
2014,04,11,17,28,15.30
2014,04,11,17,29,15.30
2014,04,11,17,30,15.30
2014,04,11,17,31,15.20
2014,04,11,17,32,15.20
2014,04,11,17,33,15.10
2014,04,11,17,34,15.00
2014,04,11,17,35,15.00
2014,04,11,17,36,15.00
2014,04,11,17,37,14.90
2014,04,11,17,38,14.90
2014,04,11,17,39,14.90
2014,04,11,17,40,14.90